• Em Portugal
  • Lista de países
  • Para 7 dias
  • Temperatura da água
  • Mapas de satélite
  • Mapa do tempo
  • Widgets de tempo
  • user-avatar
    Iniciar Sessão

    Previsão horária em Kandahar

    Hoje, 20 Novembro, Segunda-feira

    Tempo Temperatura Precipitação Vento Pressão Humidade
    00:00 +11°C° 0 mm 1 m/s 678 mmHg 34%
    01:00 +10°C° 0 mm 1 m/s 677 mmHg 34%
    02:00 +10°C° 0 mm 1 m/s 677 mmHg 35%
    03:00 +9°C° 0 mm 1 m/s 677 mmHg 36%
    04:00 +8°C° 0 mm 1 m/s 677 mmHg 37%
    05:00 +8°C° 0 mm 0 m/s 677 mmHg 37%
    06:00 +8°C° 0 mm 0 m/s 677 mmHg 36%
    07:00 +8°C° 0 mm 0 m/s 678 mmHg 35%
    08:00 +10°C° 0 mm 0 m/s 678 mmHg 31%
    09:00 +12°C° 0 mm 0 m/s 679 mmHg 27%
    10:00 +14°C° 0 mm 0 m/s 679 mmHg 23%
    11:00 +16°C° 0 mm 1 m/s 679 mmHg 22%
    12:00 +18°C° 0 mm 1 m/s 679 mmHg 20%
    13:00 +19°C° 0 mm 1 m/s 678 mmHg 19%
    14:00 +17°C° 0 mm 2 m/s 678 mmHg 19%
    15:00 +17°C° 0 mm 2 m/s 678 mmHg 20%
    16:00 +17°C° 0 mm 2 m/s 677 mmHg 21%
    17:00 +16°C° 0 mm 2 m/s 677 mmHg 23%
    18:00 +14°C° 0 mm 2 m/s 677 mmHg 25%
    19:00 +13°C° 0 mm 1 m/s 677 mmHg 27%
    20:00 +12°C° 0 mm 1 m/s 677 mmHg 29%
    21:00 +12°C° 0 mm 1 m/s 677 mmHg 30%
    22:00 +10°C° 0 mm 0 m/s 677 mmHg 32%
    23:00 +9°C° 0 mm 0 m/s 677 mmHg 33%

    Amanhã, 21 Novembro, Terça-feira

    Tempo Temperatura Precipitação Vento Pressão Humidade
    00:00 +9°C° 0 mm 0 m/s 676 mmHg 34%
    01:00 +8°C° 0 mm 0 m/s 676 mmHg 35%
    02:00 +8°C° 0 mm 0 m/s 676 mmHg 35%
    03:00 +8°C° 0 mm 0 m/s 676 mmHg 36%
    04:00 +7°C° 0 mm 0 m/s 676 mmHg 37%
    05:00 +8°C° 0 mm 0 m/s 676 mmHg 36%
    06:00 +8°C° 0 mm 0 m/s 676 mmHg 35%
    07:00 +8°C° 0 mm 0 m/s 676 mmHg 34%
    08:00 +10°C° 0 mm 0 m/s 677 mmHg 29%
    09:00 +13°C° 0 mm 0 m/s 678 mmHg 25%
    10:00 +15°C° 0 mm 0 m/s 678 mmHg 21%
    11:00 +15°C° 0 mm 0 m/s 678 mmHg 19%
    12:00 +18°C° 0 mm 1 m/s 677 mmHg 17%
    13:00 +19°C° 0 mm 1 m/s 677 mmHg 16%
    14:00 +19°C° 0 mm 1 m/s 676 mmHg 16%
    15:00 +19°C° 0 mm 1 m/s 676 mmHg 16%
    16:00 +18°C° 0 mm 1 m/s 676 mmHg 17%
    17:00 +16°C° 0 mm 1 m/s 676 mmHg 19%
    18:00 +14°C° 0 mm 1 m/s 676 mmHg 22%
    19:00 +12°C° 0 mm 1 m/s 676 mmHg 25%
    20:00 +11°C° 0 mm 0 m/s 675 mmHg 26%
    21:00 +10°C° 0 mm 0 m/s 675 mmHg 27%
    22:00 +10°C° 0 mm 0 m/s 675 mmHg 28%
    23:00 +9°C° 0 mm 0 m/s 675 mmHg 28%

    Depois de amanhã, 22 Novembro, Quarta-feira

    Tempo Temperatura Precipitação Vento Pressão Humidade
    00:00 +9°C° 0 mm 0 m/s 675 mmHg 28%
    01:00 +10°C° 0 mm 1 m/s 674 mmHg 29%
    02:00 +9°C° 0 mm 1 m/s 674 mmHg 28%
    03:00 +9°C° 0 mm 1 m/s 674 mmHg 28%
    04:00 +8°C° 0 mm 2 m/s 674 mmHg 28%
    05:00 +9°C° 0 mm 2 m/s 674 mmHg 27%
    06:00 +9°C° 0 mm 2 m/s 675 mmHg 26%
    07:00 +9°C° 0 mm 2 m/s 675 mmHg 25%
    08:00 +12°C° 0 mm 2 m/s 676 mmHg 21%
    09:00 +15°C° 0 mm 2 m/s 676 mmHg 17%
    10:00 +17°C° 0 mm 2 m/s 677 mmHg 14%
    11:00 +18°C° 0 mm 2 m/s 676 mmHg 12%
    12:00 +19°C° 0 mm 2 m/s 676 mmHg 11%
    13:00 +20°C° 0 mm 1 m/s 675 mmHg 9%
    14:00 +20°C° 0 mm 1 m/s 675 mmHg 9%
    15:00 +20°C° 0 mm 1 m/s 675 mmHg 9%
    16:00 +19°C° 0 mm 1 m/s 675 mmHg 9%
    17:00 +18°C° 0 mm 1 m/s 675 mmHg 10%
    18:00 +16°C° 0 mm 1 m/s 675 mmHg 11%
    19:00 +15°C° 0 mm 1 m/s 675 mmHg 12%
    20:00 +14°C° 0 mm 1 m/s 674 mmHg 12%
    21:00 +14°C° 0 mm 1 m/s 674 mmHg 12%
    22:00 +13°C° 0 mm 1 m/s 674 mmHg 13%
    23:00 +13°C° 0 mm 1 m/s 674 mmHg 13%

    23 Novembro, Quinta-feira

    Tempo Temperatura Precipitação Vento Pressão Humidade
    00:00 +12°C° 0 mm 1 m/s 674 mmHg 13%
    01:00 +12°C° 0 mm 1 m/s 673 mmHg 13%
    02:00 +12°C° 0 mm 1 m/s 673 mmHg 13%
    03:00 +12°C° 0 mm 1 m/s 673 mmHg 13%
    04:00 +12°C° 0 mm 2 m/s 673 mmHg 13%
    05:00 +12°C° 0 mm 2 m/s 673 mmHg 12%
    06:00 +13°C° 0 mm 1 m/s 674 mmHg 12%
    07:00 +13°C° 0 mm 1 m/s 674 mmHg 11%
    08:00 +15°C° 0 mm 2 m/s 675 mmHg 12%
    09:00 +16°C° 0 mm 2 m/s 675 mmHg 12%
    10:00 +18°C° 0 mm 2 m/s 676 mmHg 12%
    11:00 +19°C° 0 mm 2 m/s 675 mmHg 13%
    12:00 +19°C° 0 mm 2 m/s 675 mmHg 14%
    13:00 +20°C° 0 mm 2 m/s 675 mmHg 16%
    14:00 +20°C° 0 mm 2 m/s 674 mmHg 17%
    15:00 +19°C° 0 mm 2 m/s 674 mmHg 18%
    16:00 +20°C° 0 mm 1 m/s 674 mmHg 19%
    17:00 +18°C° 0 mm 2 m/s 674 mmHg 21%
    18:00 +17°C° 0 mm 2 m/s 674 mmHg 23%
    19:00 +16°C° 0 mm 2 m/s 674 mmHg 25%
    20:00 +15°C° 0 mm 2 m/s 674 mmHg 26%
    21:00 +15°C° 0 mm 2 m/s 674 mmHg 26%
    22:00 +15°C° 0 mm 2 m/s 675 mmHg 26%
    23:00 +14°C° 0 mm 2 m/s 674 mmHg 26%

    24 Novembro, Sexta-feira

    Tempo Temperatura Precipitação Vento Pressão Humidade
    00:00 +14°C° 0 mm 2 m/s 674 mmHg 27%
    01:00 +13°C° 0 mm 2 m/s 674 mmHg 27%
    02:00 +13°C° 0 mm 2 m/s 674 mmHg 27%
    03:00 +13°C° 0 mm 2 m/s 674 mmHg 27%
    04:00 +13°C° 0 mm 2 m/s 674 mmHg 27%
    05:00 +13°C° 0 mm 2 m/s 674 mmHg 26%
    06:00 +13°C° 0 mm 2 m/s 674 mmHg 26%
    07:00 +13°C° 0 mm 2 m/s 675 mmHg 25%
    08:00 +16°C° 0 mm 3 m/s 676 mmHg 21%
    09:00 +18°C° 0 mm 3 m/s 676 mmHg 17%
    10:00 +20°C° 0 mm 3 m/s 677 mmHg 14%
    11:00 +21°C° 0 mm 3 m/s 676 mmHg 14%
    12:00 +22°C° 0 mm 3 m/s 676 mmHg 14%
    13:00 +24°C° 0 mm 2 m/s 675 mmHg 14%
    14:00 +23°C° 0 mm 2 m/s 675 mmHg 15%
    15:00 +21°C° 0 mm 2 m/s 675 mmHg 16%
    16:00 +22°C° 0 mm 1 m/s 675 mmHg 18%
    17:00 +21°C° 0 mm 1 m/s 675 mmHg 18%
    18:00 +20°C° 0 mm 2 m/s 675 mmHg 19%
    19:00 +19°C° 0 mm 2 m/s 675 mmHg 20%
    20:00 +19°C° 0 mm 2 m/s 675 mmHg 20%
    21:00 +18°C° 0 mm 3 m/s 675 mmHg 21%
    22:00 +18°C° 0 mm 3 m/s 675 mmHg 21%
    23:00 +18°C° 0 mm 3 m/s 675 mmHg 22%

    25 Novembro, Sábado

    Tempo Temperatura Precipitação Vento Pressão Humidade
    00:00 +18°C° 0 mm 3 m/s 675 mmHg 23%
    01:00 +18°C° 0 mm 3 m/s 675 mmHg 24%
    02:00 +17°C° 0 mm 3 m/s 675 mmHg 25%
    03:00 +17°C° 0 mm 3 m/s 675 mmHg 26%
    04:00 +17°C° 0 mm 2 m/s 674 mmHg 28%
    05:00 +17°C° 0 mm 2 m/s 675 mmHg 29%
    06:00 +17°C° 0 mm 3 m/s 675 mmHg 30%
    07:00 +17°C° 0 mm 3 m/s 675 mmHg 31%
    08:00 +18°C° 0 mm 3 m/s 676 mmHg 32%
    09:00 +19°C° 0 mm 4 m/s 676 mmHg 33%
    10:00 +21°C° 0 mm 4 m/s 677 mmHg 34%
    11:00 +21°C° 0,1 mm 4 m/s 676 mmHg 34%
    12:00 +22°C° 0,1 mm 4 m/s 676 mmHg 34%
    13:00 +22°C° 0,1 mm 4 m/s 675 mmHg 34%
    14:00 +22°C° 0 mm 4 m/s 675 mmHg 35%
    15:00 +22°C° 0 mm 4 m/s 675 mmHg 36%
    16:00 +22°C° 0 mm 4 m/s 675 mmHg 37%
    17:00 +20°C° 0 mm 4 m/s 676 mmHg 40%
    18:00 +19°C° 0 mm 3 m/s 676 mmHg 43%
    19:00 +18°C° 0 mm 2 m/s 676 mmHg 47%
    20:00 +17°C° 0 mm 2 m/s 677 mmHg 46%
    21:00 +17°C° 0 mm 3 m/s 677 mmHg 45%
    22:00 +16°C° 0 mm 3 m/s 677 mmHg 45%
    23:00 +15°C° 0 mm 2 m/s 677 mmHg 42%
    Mostrar mais